Location: Paderno d�Adda
(45.6667°N, 9.4333°E)
Time: 14:13:09
(UTC+00:00)

YAOGAN 1 - Pass Details

Date: 19 September 2020
Orbit: 618 x 620 km, 97.9° (Epoch: 29 October)

Event Time Altitude Azimuth Distance (km) Brightness Sun altitude
Rises 18:38:30 0° 189° (S) 2,884 5.9 -13.5°
Reaches altitude 10° 18:40:51 10° 199° (SSW) 1,983 5.2 -13.9°
Maximum altitude 18:44:45 33° 263° (W) 1,049 4.4 -14.5°
Drops below altitude 10° 18:48:42 10° 328° (NNW) 1,998 5.9 -15.2°
Sets 18:51:04 0° 338° (NNW) 2,909 6.6 -15.6°
